Location: Hengforden
(52.3167°N, 6.1333°E)
Time: 14:58:29
(UTC+00:00)

COBE Rocket - Pass Details

Date: 14 June 2025
Orbit: 674 x 774 km, 97.1° (Epoch: 19 July)

Event Time Altitude Azimuth Distance (km) Brightness Sun altitude
Rises 22:02:44 0° 11° (NNE) 3,250 8.3 -11.7°
Reaches altitude 10° 22:05:04 10° 11° (N) 2,309 7.4 -11.8°
Maximum altitude 22:10:10 77° 286° (WNW) 776 4.1 -12.1°
Drops below altitude 10° 22:15:06 10° 201° (SSW) 2,236 6.0 -12.3°
Enters shadow 22:15:12 10° 201° (SSW) 2,276 6.0 -12.3°
